View from above orbital plane
|
View from above satellite
|
Ground track
|
The orbit data is extracted from the following two-line orbital elements,
1 39679U 14021B 21059.56009222 .00000349 00000-0 34963-4 0 9990
2 39679 51.6167 358.6134 0171226 113.4131 248.4947 15.06773422377636
Epoch (UTC): | 28 February 2021 13:26:31 |
Eccentricity: | 0.0171226 |
inclination: | 51.6167° |
perigee height: | 427 km |
apogee height: | 664 km |
right ascension of ascending node: | 358.6134° |
argument of perigee: | 113.4131° |
revolutions per day: | 15.06773422 |
mean anomaly at epoch: | 248.4947° |
orbit number at epoch: | 37763 |
The dashed part of the orbit path shows where the satellite is in the earth's shadow,
|
|